Kodiak, AK

8:18 AM AKDT on April 30, 2017 (GMT -0800)
Kodiak

Weather History for PADQ - February, 2014

Change the Weather History Date:

Wednesday, February 19, 2014

  Actual Average Record
Temperature  
Mean Temperature 18 °F 31 °F  
Max Temperature 28 °F 36 °F 45 °F (1945)
Min Temperature 7 °F 26 °F 0 °F (1975)
Degree Days  
Heating Degree Days 47 34  
Month to date heating degree days 712 655  
Since 1 July heating degree days 5026 5569  
Cooling Degree Days 0 0  
Month to date cooling degree days 0 0  
Year to date cooling degree days 0 0  
Moisture  
Dew Point 7 °F    
Average Humidity 0    
Maximum Humidity 0    
Minimum Humidity 0    
Precipitation  
Precipitation 0.00 in 0.19 in 1.96 in (2008)
Month to date precipitation 1.35 4.28  
Year to date precipitation 15.65 12.57  
Snow  
Snow 0.00 in 0.50 in 8.80 in (2012)
Month to date snowfall 3.9 10.3  
Since 1 July snowfall 27.9 44.6  
Snow Depth 1.00 in    
Sea Level Pressure  
Sea Level Pressure 29.63 in    
Wind  
Wind Speed 6 mph (West)    
Max Wind Speed 16 mph    
Max Gust Speed 23 mph    
Visibility 10 miles    
Events      
T = Trace of Precipitation, MM = Missing Value Source: NWS Daily Summary

Daily Weather History Graph

Daily Weather History Graph

Search for Another Location

Airport or City:

Trip Planner

Search our weather history database for the weather conditions in past years. The results will help you decide how hot, cold, wet, or windy it might be!

Date:

Astronomy

Feb. 19, 2014 Rise Set
Actual Time 8:29 AM AKST 6:18 PM AKST
Civil Twilight 7:49 AM AKST 6:59 PM AKST
Nautical Twilight 7:04 AM AKST 7:44 PM AKST
Astronomical Twilight 6:19 AM AKST 8:29 PM AKST
Moon No Moon Rise 9:36 AM AKST (2/19)
Length of Visible Light 11h 09m
Length of Day
9h 49m
Waning Gibbous, 78% of the Moon is Illuminated
Feb 19
Waning Gibbous
Feb 22
Last Quarter
Feb 28
New
Mar 8
First Quarter
Mar 16
Full

Hourly Weather History & Observations

Time (AKST) Temp. Windchill Dew Point Humidity Pressure Visibility Wind Dir Wind Speed Gust Speed Precip Events Conditions
12:53 AM 8.1 °F -2.0 °F 1.0 °F 73% 29.43 in 10.0 mi West 5.8 mph - N/A   Partly Cloudy
1:53 AM 9.0 °F -0.9 °F 1.9 °F 73% 29.44 in 10.0 mi WSW 5.8 mph - N/A   Clear
3:53 AM 10.9 °F 2.9 °F 3.9 °F 73% 29.47 in 10.0 mi West 4.6 mph - N/A   Mostly Cloudy
4:53 AM 15.1 °F - 6.1 °F 68% 29.48 in 10.0 mi Calm Calm - N/A   Mostly Cloudy
5:53 AM 14.0 °F 6.5 °F 7.0 °F 74% 29.50 in 10.0 mi West 4.6 mph - N/A   Scattered Clouds
6:53 AM 12.9 °F 1.6 °F 7.0 °F 77% 29.51 in 10.0 mi West 8.1 mph - N/A   Mostly Cloudy
7:53 AM 16.0 °F - 8.1 °F 71% 29.53 in 10.0 mi Calm Calm - N/A   Scattered Clouds
8:53 AM 15.1 °F 9.4 °F 7.0 °F 70% 29.55 in 10.0 mi West 3.5 mph - N/A   Scattered Clouds
9:53 AM 21.0 °F - 9.0 °F 60% 29.58 in 10.0 mi Calm Calm - N/A   Scattered Clouds
10:53 AM 26.1 °F 20.5 °F 9.0 °F 49% 29.60 in 10.0 mi NNW 4.6 mph - N/A   Scattered Clouds
11:53 AM 27.0 °F 19.5 °F 8.1 °F 45% 29.62 in 10.0 mi West 6.9 mph - N/A   Scattered Clouds
12:53 PM 27.0 °F 16.1 °F 7.0 °F 43% 29.64 in 10.0 mi WNW 12.7 mph 18.4 mph N/A   Partly Cloudy
1:53 PM 27.0 °F 18.0 °F 7.0 °F 43% 29.65 in 10.0 mi NW 9.2 mph 17.3 mph N/A   Scattered Clouds
2:53 PM 28.0 °F 19.3 °F 8.1 °F 43% 29.66 in 10.0 mi WNW 9.2 mph - N/A   Partly Cloudy
3:53 PM 27.0 °F 18.0 °F 9.0 °F 47% 29.68 in 10.0 mi West 9.2 mph - N/A   Clear
4:53 PM 26.1 °F 17.6 °F 7.0 °F 44% 29.70 in 10.0 mi West 8.1 mph - N/A   Partly Cloudy
5:53 PM 25.0 °F 14.2 °F 9.0 °F 51% 29.71 in 10.0 mi West 11.5 mph - N/A   Partly Cloudy
6:53 PM 23.0 °F 13.1 °F 9.0 °F 55% 29.74 in 10.0 mi West 9.2 mph - N/A   Clear
7:53 PM 21.0 °F - 8.1 °F 57% 29.76 in 10.0 mi Calm Calm - N/A   Partly Cloudy
8:53 PM 19.0 °F 11.1 °F 8.1 °F 62% 29.78 in 10.0 mi West 5.8 mph - N/A   Clear
9:53 PM 17.1 °F 10.0 °F 7.0 °F 65% 29.79 in 10.0 mi WSW 4.6 mph - N/A   Clear
10:53 PM 19.0 °F 11.1 °F 9.0 °F 65% 29.81 in 10.0 mi SSW 5.8 mph - N/A   Partly Cloudy
11:53 PM 15.1 °F 5.2 °F 7.0 °F 70% 29.83 in 10.0 mi WNW 6.9 mph - N/A   Partly Cloudy